<?xml version="1.0" encoding="UTF-8" standalone="no" ?>
<gpx xmlns="http://www.topografix.com/GPX/1/1" xmlns:xsi="http://www.w3.org/2001/XMLSchema-instance" xsi:schemaLocation="http://www.topografix.com/GPX/1/1 http://www.topografix.com/GPX/1/1/gpx.xsd" version="1.1" creator="VisuGPX - https://www.visugpx.com">
  <metadata>
    <name>Vtt </name>
  </metadata>
  <trk>
    <name><![CDATA[Saint_broladre_40_km on GPSies.com]]></name>
    <extensions>
      <line xmlns="http://www.topografix.com/GPX/gpx_style/0/2">
        <color>00FF00</color>
        <width>4</width>
      </line>
    </extensions>
    <trkseg>
      <trkpt lat="48.57708" lon="-1.66362">
        <ele>57</ele>
        <time>2009-07-16T16:26:40Z</time>
      </trkpt>
      <trkpt lat="48.57767" lon="-1.66107">
        <ele>70.3</ele>
        <time>2009-07-16T16:27:51Z</time>
      </trkpt>
      <trkpt lat="48.57679" lon="-1.65991">
        <ele>69.9</ele>
        <time>2009-07-16T16:28:38Z</time>
      </trkpt>
      <trkpt lat="48.57485" lon="-1.66072">
        <ele>74.6</ele>
        <time>2009-07-16T16:29:59Z</time>
      </trkpt>
      <trkpt lat="48.57325" lon="-1.66142">
        <ele>74.7</ele>
        <time>2009-07-16T16:31:05Z</time>
      </trkpt>
      <trkpt lat="48.5716" lon="-1.66115">
        <ele>73</ele>
        <time>2009-07-16T16:32:12Z</time>
      </trkpt>
      <trkpt lat="48.56989" lon="-1.66045">
        <ele>75.8</ele>
        <time>2009-07-16T16:33:23Z</time>
      </trkpt>
      <trkpt lat="48.56827" lon="-1.66055">
        <ele>78</ele>
        <time>2009-07-16T16:34:28Z</time>
      </trkpt>
      <trkpt lat="48.56687" lon="-1.65963">
        <ele>81</ele>
        <time>2009-07-16T16:35:29Z</time>
      </trkpt>
      <trkpt lat="48.56623" lon="-1.65767">
        <ele>80.6</ele>
        <time>2009-07-16T16:36:27Z</time>
      </trkpt>
      <trkpt lat="48.56688" lon="-1.65641">
        <ele>76.3</ele>
        <time>2009-07-16T16:37:09Z</time>
      </trkpt>
      <trkpt lat="48.56603" lon="-1.6543">
        <ele>77.1</ele>
        <time>2009-07-16T16:38:14Z</time>
      </trkpt>
      <trkpt lat="48.56536" lon="-1.65228">
        <ele>76.7</ele>
        <time>2009-07-16T16:39:14Z</time>
      </trkpt>
      <trkpt lat="48.56582" lon="-1.64959">
        <ele>79</ele>
        <time>2009-07-16T16:40:28Z</time>
      </trkpt>
      <trkpt lat="48.56574" lon="-1.64721">
        <ele>78.3</ele>
        <time>2009-07-16T16:41:31Z</time>
      </trkpt>
      <trkpt lat="48.56537" lon="-1.64477">
        <ele>79</ele>
        <time>2009-07-16T16:42:37Z</time>
      </trkpt>
      <trkpt lat="48.56682" lon="-1.64434">
        <ele>76.8</ele>
        <time>2009-07-16T16:43:36Z</time>
      </trkpt>
      <trkpt lat="48.56694" lon="-1.64196">
        <ele>72.1</ele>
        <time>2009-07-16T16:44:40Z</time>
      </trkpt>
      <trkpt lat="48.56657" lon="-1.63949">
        <ele>74.8</ele>
        <time>2009-07-16T16:45:47Z</time>
      </trkpt>
      <trkpt lat="48.56591" lon="-1.63703">
        <ele>76.7</ele>
        <time>2009-07-16T16:46:57Z</time>
      </trkpt>
      <trkpt lat="48.56639" lon="-1.63453">
        <ele>79.7</ele>
        <time>2009-07-16T16:48:06Z</time>
      </trkpt>
      <trkpt lat="48.56704" lon="-1.63197">
        <ele>80.9</ele>
        <time>2009-07-16T16:49:19Z</time>
      </trkpt>
      <trkpt lat="48.56772" lon="-1.6295">
        <ele>83.4</ele>
        <time>2009-07-16T16:50:29Z</time>
      </trkpt>
      <trkpt lat="48.56815" lon="-1.62713">
        <ele>84</ele>
        <time>2009-07-16T16:51:35Z</time>
      </trkpt>
      <trkpt lat="48.56868" lon="-1.62478">
        <ele>84</ele>
        <time>2009-07-16T16:52:40Z</time>
      </trkpt>
      <trkpt lat="48.56895" lon="-1.62307">
        <ele>85</ele>
        <time>2009-07-16T16:53:27Z</time>
      </trkpt>
      <trkpt lat="48.56927" lon="-1.62091">
        <ele>88</ele>
        <time>2009-07-16T16:54:26Z</time>
      </trkpt>
      <trkpt lat="48.5682" lon="-1.61958">
        <ele>89</ele>
        <time>2009-07-16T16:55:21Z</time>
      </trkpt>
      <trkpt lat="48.56666" lon="-1.61896">
        <ele>89</ele>
        <time>2009-07-16T16:56:25Z</time>
      </trkpt>
      <trkpt lat="48.56516" lon="-1.61953">
        <ele>89.3</ele>
        <time>2009-07-16T16:57:27Z</time>
      </trkpt>
      <trkpt lat="48.56351" lon="-1.6194">
        <ele>90.2</ele>
        <time>2009-07-16T16:58:33Z</time>
      </trkpt>
      <trkpt lat="48.56187" lon="-1.61907">
        <ele>86.2</ele>
        <time>2009-07-16T16:59:39Z</time>
      </trkpt>
      <trkpt lat="48.56088" lon="-1.62046">
        <ele>90</ele>
        <time>2009-07-16T17:00:33Z</time>
      </trkpt>
      <trkpt lat="48.55993" lon="-1.62171">
        <ele>86.5</ele>
        <time>2009-07-16T17:01:24Z</time>
      </trkpt>
      <trkpt lat="48.55837" lon="-1.62138">
        <ele>79.3</ele>
        <time>2009-07-16T17:02:27Z</time>
      </trkpt>
      <trkpt lat="48.55679" lon="-1.6216">
        <ele>75.9</ele>
        <time>2009-07-16T17:03:30Z</time>
      </trkpt>
      <trkpt lat="48.55534" lon="-1.62106">
        <ele>76.6</ele>
        <time>2009-07-16T17:04:30Z</time>
      </trkpt>
      <trkpt lat="48.55455" lon="-1.61886">
        <ele>74</ele>
        <time>2009-07-16T17:05:36Z</time>
      </trkpt>
      <trkpt lat="48.55442" lon="-1.61693">
        <ele>72.1</ele>
        <time>2009-07-16T17:06:28Z</time>
      </trkpt>
      <trkpt lat="48.55485" lon="-1.61485">
        <ele>71.3</ele>
        <time>2009-07-16T17:07:25Z</time>
      </trkpt>
      <trkpt lat="48.55567" lon="-1.61271">
        <ele>71.6</ele>
        <time>2009-07-16T17:08:31Z</time>
      </trkpt>
      <trkpt lat="48.55452" lon="-1.61139">
        <ele>71.7</ele>
        <time>2009-07-16T17:09:29Z</time>
      </trkpt>
      <trkpt lat="48.5561" lon="-1.61132">
        <ele>72</ele>
        <time>2009-07-16T17:10:32Z</time>
      </trkpt>
      <trkpt lat="48.55647" lon="-1.60987">
        <ele>71.7</ele>
        <time>2009-07-16T17:11:13Z</time>
      </trkpt>
      <trkpt lat="48.55572" lon="-1.60769">
        <ele>74.4</ele>
        <time>2009-07-16T17:12:18Z</time>
      </trkpt>
      <trkpt lat="48.55497" lon="-1.60547">
        <ele>74.1</ele>
        <time>2009-07-16T17:13:24Z</time>
      </trkpt>
      <trkpt lat="48.55523" lon="-1.60341">
        <ele>72</ele>
        <time>2009-07-16T17:14:20Z</time>
      </trkpt>
      <trkpt lat="48.55597" lon="-1.60153">
        <ele>69</ele>
        <time>2009-07-16T17:15:18Z</time>
      </trkpt>
      <trkpt lat="48.5573" lon="-1.60018">
        <ele>66.4</ele>
        <time>2009-07-16T17:16:22Z</time>
      </trkpt>
      <trkpt lat="48.55881" lon="-1.60014">
        <ele>61.3</ele>
        <time>2009-07-16T17:17:22Z</time>
      </trkpt>
      <trkpt lat="48.56018" lon="-1.59945">
        <ele>68</ele>
        <time>2009-07-16T17:18:20Z</time>
      </trkpt>
      <trkpt lat="48.56097" lon="-1.59724">
        <ele>64</ele>
        <time>2009-07-16T17:19:27Z</time>
      </trkpt>
      <trkpt lat="48.55997" lon="-1.59578">
        <ele>61.3</ele>
        <time>2009-07-16T17:20:22Z</time>
      </trkpt>
      <trkpt lat="48.55952" lon="-1.5934">
        <ele>56.9</ele>
        <time>2009-07-16T17:21:28Z</time>
      </trkpt>
      <trkpt lat="48.55839" lon="-1.59188">
        <ele>56.8</ele>
        <time>2009-07-16T17:22:29Z</time>
      </trkpt>
      <trkpt lat="48.55824" lon="-1.5899">
        <ele>53</ele>
        <time>2009-07-16T17:23:21Z</time>
      </trkpt>
      <trkpt lat="48.55697" lon="-1.58846">
        <ele>53.1</ele>
        <time>2009-07-16T17:24:25Z</time>
      </trkpt>
      <trkpt lat="48.55607" lon="-1.58638">
        <ele>53.2</ele>
        <time>2009-07-16T17:25:31Z</time>
      </trkpt>
      <trkpt lat="48.55635" lon="-1.58444">
        <ele>46.8</ele>
        <time>2009-07-16T17:26:23Z</time>
      </trkpt>
      <trkpt lat="48.55564" lon="-1.58248">
        <ele>49.3</ele>
        <time>2009-07-16T17:27:23Z</time>
      </trkpt>
      <trkpt lat="48.55472" lon="-1.58064">
        <ele>50.2</ele>
        <time>2009-07-16T17:28:24Z</time>
      </trkpt>
      <trkpt lat="48.55425" lon="-1.58249">
        <ele>52.3</ele>
        <time>2009-07-16T17:29:16Z</time>
      </trkpt>
      <trkpt lat="48.553" lon="-1.58408">
        <ele>63.3</ele>
        <time>2009-07-16T17:30:22Z</time>
      </trkpt>
      <trkpt lat="48.55156" lon="-1.58375">
        <ele>67</ele>
        <time>2009-07-16T17:31:20Z</time>
      </trkpt>
      <trkpt lat="48.55154" lon="-1.58133">
        <ele>57.7</ele>
        <time>2009-07-16T17:32:24Z</time>
      </trkpt>
      <trkpt lat="48.55021" lon="-1.58012">
        <ele>44.5</ele>
        <time>2009-07-16T17:33:26Z</time>
      </trkpt>
      <trkpt lat="48.54991" lon="-1.57847">
        <ele>38.8</ele>
        <time>2009-07-16T17:34:12Z</time>
      </trkpt>
      <trkpt lat="48.55046" lon="-1.5762">
        <ele>38.7</ele>
        <time>2009-07-16T17:35:16Z</time>
      </trkpt>
      <trkpt lat="48.55071" lon="-1.57411">
        <ele>36.6</ele>
        <time>2009-07-16T17:36:12Z</time>
      </trkpt>
      <trkpt lat="48.54916" lon="-1.57356">
        <ele>30</ele>
        <time>2009-07-16T17:37:16Z</time>
      </trkpt>
      <trkpt lat="48.54797" lon="-1.57245">
        <ele>24.7</ele>
        <time>2009-07-16T17:38:12Z</time>
      </trkpt>
      <trkpt lat="48.54678" lon="-1.57118">
        <ele>20.1</ele>
        <time>2009-07-16T17:39:10Z</time>
      </trkpt>
      <trkpt lat="48.54696" lon="-1.56907">
        <ele>17.7</ele>
        <time>2009-07-16T17:40:06Z</time>
      </trkpt>
      <trkpt lat="48.54562" lon="-1.56771">
        <ele>23.2</ele>
        <time>2009-07-16T17:41:11Z</time>
      </trkpt>
      <trkpt lat="48.54557" lon="-1.56595">
        <ele>25.9</ele>
        <time>2009-07-16T17:41:58Z</time>
      </trkpt>
      <trkpt lat="48.54597" lon="-1.56386">
        <ele>24.5</ele>
        <time>2009-07-16T17:42:55Z</time>
      </trkpt>
      <trkpt lat="48.54553" lon="-1.56155">
        <ele>25.1</ele>
        <time>2009-07-16T17:43:59Z</time>
      </trkpt>
      <trkpt lat="48.54704" lon="-1.56057">
        <ele>21.4</ele>
        <time>2009-07-16T17:45:05Z</time>
      </trkpt>
      <trkpt lat="48.54846" lon="-1.55961">
        <ele>15.6</ele>
        <time>2009-07-16T17:46:07Z</time>
      </trkpt>
      <trkpt lat="48.54759" lon="-1.55765">
        <ele>15.3</ele>
        <time>2009-07-16T17:47:10Z</time>
      </trkpt>
      <trkpt lat="48.54833" lon="-1.55632">
        <ele>27.2</ele>
        <time>2009-07-16T17:47:56Z</time>
      </trkpt>
      <trkpt lat="48.54802" lon="-1.55406">
        <ele>24.3</ele>
        <time>2009-07-16T17:48:57Z</time>
      </trkpt>
      <trkpt lat="48.54762" lon="-1.55177">
        <ele>20.2</ele>
        <time>2009-07-16T17:50:00Z</time>
      </trkpt>
      <trkpt lat="48.54833" lon="-1.55027">
        <ele>19.9</ele>
        <time>2009-07-16T17:50:48Z</time>
      </trkpt>
      <trkpt lat="48.54972" lon="-1.54921">
        <ele>24.1</ele>
        <time>2009-07-16T17:51:51Z</time>
      </trkpt>
      <trkpt lat="48.55074" lon="-1.55077">
        <ele>28.9</ele>
        <time>2009-07-16T17:52:49Z</time>
      </trkpt>
      <trkpt lat="48.55226" lon="-1.55015">
        <ele>31</ele>
        <time>2009-07-16T17:53:52Z</time>
      </trkpt>
      <trkpt lat="48.55323" lon="-1.54903">
        <ele>33</ele>
        <time>2009-07-16T17:54:41Z</time>
      </trkpt>
      <trkpt lat="48.55302" lon="-1.54659">
        <ele>35</ele>
        <time>2009-07-16T17:55:46Z</time>
      </trkpt>
      <trkpt lat="48.55256" lon="-1.5442">
        <ele>35.1</ele>
        <time>2009-07-16T17:56:52Z</time>
      </trkpt>
      <trkpt lat="48.55259" lon="-1.54179">
        <ele>29</ele>
        <time>2009-07-16T17:57:56Z</time>
      </trkpt>
      <trkpt lat="48.55313" lon="-1.53998">
        <ele>23.5</ele>
        <time>2009-07-16T17:58:48Z</time>
      </trkpt>
      <trkpt lat="48.55474" lon="-1.53967">
        <ele>12.9</ele>
        <time>2009-07-16T17:59:53Z</time>
      </trkpt>
      <trkpt lat="48.55554" lon="-1.53847">
        <ele>8.1</ele>
        <time>2009-07-16T18:00:38Z</time>
      </trkpt>
      <trkpt lat="48.55533" lon="-1.53627">
        <ele>8.3</ele>
        <time>2009-07-16T18:01:37Z</time>
      </trkpt>
      <trkpt lat="48.55452" lon="-1.53429">
        <ele>8.3</ele>
        <time>2009-07-16T18:02:39Z</time>
      </trkpt>
      <trkpt lat="48.55333" lon="-1.53313">
        <ele>8</ele>
        <time>2009-07-16T18:03:36Z</time>
      </trkpt>
      <trkpt lat="48.55389" lon="-1.53082">
        <ele>8</ele>
        <time>2009-07-16T18:04:41Z</time>
      </trkpt>
      <trkpt lat="48.55504" lon="-1.52925">
        <ele>9.2</ele>
        <time>2009-07-16T18:05:43Z</time>
      </trkpt>
      <trkpt lat="48.55625" lon="-1.52768">
        <ele>8.3</ele>
        <time>2009-07-16T18:06:47Z</time>
      </trkpt>
      <trkpt lat="48.55673" lon="-1.52598">
        <ele>8</ele>
        <time>2009-07-16T18:07:36Z</time>
      </trkpt>
      <trkpt lat="48.55666" lon="-1.52372">
        <ele>8</ele>
        <time>2009-07-16T18:08:36Z</time>
      </trkpt>
      <trkpt lat="48.558" lon="-1.52231">
        <ele>8</ele>
        <time>2009-07-16T18:09:41Z</time>
      </trkpt>
      <trkpt lat="48.55749" lon="-1.5206">
        <ele>8</ele>
        <time>2009-07-16T18:10:31Z</time>
      </trkpt>
      <trkpt lat="48.55648" lon="-1.51877">
        <ele>8.1</ele>
        <time>2009-07-16T18:11:34Z</time>
      </trkpt>
      <trkpt lat="48.55522" lon="-1.51734">
        <ele>8.5</ele>
        <time>2009-07-16T18:12:37Z</time>
      </trkpt>
    </trkseg>
  </trk>
</gpx>